Location: Holbach
(51.5399°N, 10.6036°E)
Time: 10:28:11
(UTC+00:00)

Cosmos 1092 Rocket - Pass Details

Date: 26 June 2021
Orbit: 955 x 994 km, 82.9° (Epoch: 28 July)

Event Time Altitude Azimuth Distance (km) Brightness Sun altitude
Exits shadow 01:56:53 - 238° (WSW) 2,966 5.9 -7.6°
Reaches altitude 10° 01:57:49 10° 243° (WSW) 2,685 5.8 -7.5°
Maximum altitude 02:02:47 25° 297° (WNW) 1,828 5.4 -7.1°
Drops below altitude 10° 02:07:49 10° 352° (N) 2,710 7.0 -6.6°
Sets 02:10:50 0° 5° (N) 3,666 8.1 -6.3°
